FW1417 Weather Reports


Display with metric or nautical units.
time (UTC)temp
F
wind
direction
speed
MPH
gust
MPH
rain 1hr
in
rain 24hr
in
rain mn
in
humidity
%
barometer
mb
20260509143705 61 178 2.0 9.0 0.00 0.00 0.00 66 1008.8
20260509143205 61 137 3.0 9.0 0.00 0.00 0.00 67 1008.8
20260509142705 61 149 3.0 8.0 0.00 0.00 0.00 67 1008.7
20260509142205 60 143 2.0 8.0 0.00 0.00 0.00 67 1008.7
20260509141706 60 155 2.0 8.0 0.00 0.00 0.00 67 1008.7
20260509141206 60 142 2.0 8.0 0.00 0.00 0.00 67 1008.9
20260509140705 60 141 2.0 8.0 0.00 0.00 0.00 67 1008.8
20260509140205 60 155 2.0 8.0 0.00 0.00 0.00 67 1008.8
20260509135705 60 128 3.0 9.0 0.00 0.00 0.00 67 1008.9
20260509135205 60 124 3.0 9.0 0.00 0.00 0.00 67 1008.9
20260509134705 60 157 5.0 9.0 0.00 0.00 0.00 67 1008.8
20260509133705 60 151 2.0 9.0 0.00 0.00 0.00 66 1009.0
20260509133205 60 141 3.0 7.0 0.00 0.00 0.00 66 1009.0
20260509132705 60 119 3.0 7.0 0.00 0.00 0.00 66 1008.9
20260509132205 59 153 4.0 7.0 0.00 0.00 0.00 66 1008.9
20260509131705 59 148 2.0 8.0 0.00 0.00 0.00 67 1008.7
20260509130205 59 148 3.0 8.0 0.00 0.00 0.00 68 1009.0
20260509125705 59 136 2.0 8.0 0.00 0.00 0.00 68 1009.0
20260509125205 58 225 5.0 9.0 0.00 0.00 0.00 68 1009.3
20260509124705 58 144 3.0 9.0 0.00 0.00 0.00 67 1009.3
20260509124206 58 169 2.0 8.0 0.00 0.00 0.00 67 1009.3
20260509123706 58 144 5.0 8.0 0.00 0.00 0.00 68 1009.3
20260509123205 58 144 3.0 5.0 0.00 0.00 0.00 69 1009.3
20260509122705 58 169 2.0 5.0 0.00 0.00 0.00 69 1009.3
20260509122206 58 158 1.0 3.0 0.00 0.00 0.00 68 1009.3
20260509120705 58 160 3.0 7.0 0.00 0.00 0.00 69 1009.2
20260509120205 58 126 0.0 5.0 0.00 0.00 0.00 69 1009.1
20260509115705 58 173 3.0 5.0 0.00 0.00 0.00 69 1009.5
20260509115205 58 164 3.0 5.0 0.00 0.00 0.00 69 1009.4
20260509114205 58 144 2.0 8.0 0.00 0.00 0.00 68 1009.3
20260509113705 58 136 5.0 8.0 0.00 0.00 0.00 68 1009.3
20260509113205 58 144 3.0 8.0 0.00 0.00 0.00 67 1009.2
20260509112705 58 126 2.0 7.0 0.00 0.00 0.00 67 1009.2
20260509112205 58 149 1.0 3.0 0.00 0.00 0.00 66 1009.2
20260509111705 58 167 2.0 5.0 0.00 0.00 0.00 66 1009.2
20260509111206 58 159 2.0 5.0 0.00 0.00 0.00 66 1009.3
20260509110705 58 174 1.0 6.0 0.00 0.00 0.00 65 1009.4
20260509110205 58 152 2.0 6.0 0.00 0.00 0.00 65 1009.2
20260509105205 58 171 2.0 6.0 0.00 0.00 0.00 64 1009.5
20260509104705 58 145 2.0 6.0 0.00 0.00 0.00 64 1009.0
20260509104205 58 145 2.0 5.0 0.00 0.00 0.00 64 1009.0
20260509103705 58 140 2.0 6.0 0.00 0.00 0.00 64 1008.9
20260509102705 58 126 1.0 3.0 0.00 0.00 0.00 64 1008.9
20260509102205 58 137 2.0 5.0 0.00 0.00 0.00 63 1009.0
20260509101705 58 172 2.0 5.0 0.00 0.00 0.00 63 1008.8
20260509101205 58 153 2.0 3.0 0.00 0.00 0.00 62 1008.9
20260509100704 58 157 1.0 6.0 0.00 0.00 0.00 62 1008.9
20260509100205 58 151 2.0 6.0 0.00 0.00 0.00 62 1008.7
20260509095705 58 151 2.0 6.0 0.00 0.00 0.00 62 1008.7
20260509095204 58 177 1.0 3.0 0.00 0.00 0.00 62 1008.7
20260509094705 58 162 1.0 3.0 0.00 0.00 0.00 62 1008.7
20260509094204 58 182 0.0 6.0 0.00 0.00 0.00 62 1008.8
20260509093205 58 147 1.0 5.0 0.00 0.00 0.00 61 1008.5
20260509092704 58 219 1.0 3.0 0.00 0.00 0.00 61 1008.6
20260509092205 58 230 1.0 5.0 0.00 0.00 0.00 60 1008.6
20260509091705 58 153 2.0 5.0 0.00 0.00 0.00 60 1008.6
20260509091206 58 156 2.0 3.0 0.00 0.00 0.00 61 1008.7
20260509090705 58 188 1.0 3.0 0.00 0.00 0.00 62 1008.9
20260509085705 58 150 0.0 5.0 0.00 0.00 0.00 62 1008.9
20260509085204 58 150 0.0 5.0 0.00 0.00 0.00 62 1008.8
20260509083704 58 164 2.0 5.0 0.00 0.00 0.00 63 1008.8
20260509083205 58 155 2.0 5.0 0.00 0.00 0.00 63 1008.8
20260509082704 58 160 1.0 3.0 0.00 0.00 0.00 64 1008.8
20260509081705 58 160 0.0 1.0 0.00 0.00 0.00 64 1008.8
20260509081205 58 160 0.0 1.0 0.00 0.00 0.00 64 1008.9
20260509080705 58 160 0.0 1.0 0.00 0.00 0.00 63 1008.9
20260509080205 58 160 0.0 2.0 0.00 0.00 0.00 63 1008.9
20260509075705 58 160 0.0 3.0 0.00 0.00 0.00 62 1009.0
20260509074705 58 149 1.0 6.0 0.00 0.00 0.00 61 1009.0
20260509074204 58 150 1.0 6.0 0.00 0.00 0.00 61 1009.1
20260509073704 58 117 3.0 6.0 0.00 0.00 0.00 62 1009.0
20260509072205 58 132 3.0 6.0 0.00 0.00 0.00 61 1009.2
20260509070704 58 155 1.0 2.0 0.00 0.00 0.00 63 1009.0
20260509065705 58 145 1.0 2.0 0.00 0.00 0.00 63 1008.8
20260509065204 58 132 1.0 2.0 0.00 0.00 0.00 62 1008.7
20260509064205 58 140 0.0 0.0 0.00 0.00 0.00 61 1008.8
20260509063704 58 140 0.0 2.0 0.00 0.00 0.00 62 1008.9
20260509063204 58 140 0.0 2.0 0.00 0.00 0.00 61 1009.0
20260509062704 58 140 1.0 3.0 0.00 0.00 0.00 60 1009.0
20260509062204 58 144 1.0 3.0 0.00 0.00 0.00 60 1009.2
20260509061705 58 145 1.0 3.0 0.00 0.00 0.00 60 1009.3
20260509061204 58 276 0.0 0.0 0.00 0.00 0.00 59 1009.3
20260509060205 58 276 0.0 2.0 0.00 0.00 0.00 58 1009.5
20260509055705 58 276 0.0 0.0 0.00 0.00 0.00 58 1009.5
20260509055205 58 276 0.0 0.0 0.00 0.00 0.00 58 1009.6
20260509054705 58 276 0.0 2.0 0.00 0.00 0.00 58 1009.7
20260509054204 58 276 0.0 2.0 0.00 0.00 0.00 58 1009.6
20260509053704 58 273 1.0 2.0 0.00 0.00 0.00 58 1009.7
20260509053205 58 156 0.0 2.0 0.00 0.00 0.00 58 1009.6
20260509052704 58 156 0.0 2.0 0.00 0.00 0.00 57 1009.5
20260509052204 58 156 0.0 2.0 0.00 0.00 0.00 57 1009.6
20260509051705 58 157 0.0 0.0 0.00 0.00 0.00 57 1009.7
20260509051204 58 157 0.0 0.0 0.00 0.00 0.00 56 1009.5
20260509050704 57 157 0.0 0.0 0.00 0.00 0.00 57 1009.5
20260509045704 57 157 0.0 0.0 0.00 0.00 0.00 57 1009.5
20260509045205 57 157 0.0 0.0 0.00 0.00 0.00 57 1009.5
20260509044704 57 157 0.0 0.0 0.00 0.00 0.00 57 1009.5
20260509044205 57 157 0.0 0.0 0.00 0.00 0.00 56 1009.5
20260509043704 57 157 0.0 0.0 0.00 0.00 0.00 56 1009.5
20260509043205 57 157 0.0 0.0 0.00 0.00 0.00 56 1009.6
20260509042704 57 157 0.0 1.0 0.00 0.00 0.00 56 1009.4
20260509042205 57 157 1.0 1.0 0.00 0.00 0.00 56 1009.6
20260509041709 58 157 0.0 0.0 0.00 0.00 0.00 55 1009.6
20260509041208 58 157 0.0 0.0 0.00 0.00 0.00 55 1009.6
20260509040708 58 157 0.0 0.0 0.00 0.00 0.00 55 1009.5
20260509035709 58 157 0.0 0.0 0.00 0.00 0.00 54 1009.5
20260509035209 58 157 0.0 0.0 0.00 0.00 0.00 54 1009.5
20260509033708 58 157 0.0 0.0 0.00 0.00 0.00 54 1009.8
20260509033209 59 157 0.0 0.0 0.00 0.00 0.00 54 1009.9
20260509032709 59 157 0.0 0.0 0.00 0.00 0.00 54 1009.8
20260509031708 59 157 0.0 1.0 0.00 0.00 0.00 55 1009.9
20260509031207 59 157 0.0 3.0 0.00 0.00 0.00 55 1009.9
20260509030708 59 157 0.0 3.0 0.00 0.00 0.00 54 1009.9
20260509030208 59 157 1.0 6.0 0.00 0.00 0.00 55 1009.9
20260509025208 59 132 3.0 6.0 0.00 0.00 0.00 53 1010.0
20260509024709 59 149 1.0 6.0 0.00 0.00 0.00 54 1009.9
20260509024208 59 149 1.0 3.0 0.00 0.00 0.00 54 1010.1
20260509023709 59 129 1.0 3.0 0.00 0.00 0.00 54 1010.1
20260509023208 59 144 2.0 3.0 0.00 0.00 0.00 54 1010.0
20260509022708 59 155 2.0 5.0 0.00 0.00 0.00 54 1010.0
20260509022208 59 111 2.0 8.0 0.00 0.00 0.00 55 1009.9
20260509021708 59 94 2.0 8.0 0.00 0.00 0.00 55 1009.8
20260509021208 59 127 2.0 10.0 0.00 0.00 0.00 55 1009.8
20260509020708 59 119 3.0 10.0 0.00 0.00 0.00 55 1009.8
20260509020208 59 101 2.0 7.0 0.00 0.00 0.00 55 1009.7
20260509015708 59 129 2.0 7.0 0.00 0.00 0.00 56 1009.7
20260509015208 59 121 3.0 8.0 0.00 0.00 0.00 57 1009.5
20260509014708 59 113 2.0 8.0 0.00 0.00 0.00 57 1009.5
20260509013709 59 75 0.0 3.0 0.00 0.00 0.00 53 1009.4
20260509013208 59 24 1.0 3.0 0.00 0.00 0.00 53 1009.2
20260509012708 59 36 1.0 3.0 0.00 0.00 0.00 53 1009.2
20260509012208 59 333 0.0 2.0 0.00 0.00 0.00 53 1009.1
20260509011708 59 333 1.0 3.0 0.00 0.00 0.00 52 1009.0
20260509011209 59 340 1.0 3.0 0.00 0.00 0.00 53 1009.0
20260509010707 59 5 1.0 3.0 0.00 0.00 0.00 53 1009.0
20260509010208 59 43 1.0 3.0 0.00 0.00 0.00 53 1008.8
20260509005708 59 35 2.0 3.0 0.00 0.00 0.00 52 1008.7
20260509004708 59 342 0.0 3.0 0.00 0.00 0.00 52 1008.6
20260509004208 59 25 1.0 3.0 0.00 0.00 0.00 52 1008.5
20260509003708 59 40 1.0 3.0 0.00 0.00 0.00 53 1008.4
20260509003208 59 34 2.0 3.0 0.00 0.00 0.00 53 1008.3
20260509002708 59 44 2.0 3.0 0.00 0.00 0.00 52 1008.3
20260509002208 59 28 1.0 3.0 0.00 0.00 0.00 53 1008.4
20260509001708 59 45 2.0 3.0 0.00 0.00 0.00 53 1008.3
20260509001208 60 38 2.0 3.0 0.00 0.00 0.00 51 1008.4
20260509000708 60 4 1.0 5.0 0.00 0.00 0.00 50 1008.4
20260509000211 60 354 2.0 5.0 0.00 0.00 0.00 50 1008.4
20260508235708 60 351 1.0 5.0 0.00 0.00 0.00 50 1008.5
20260508235208 60 333 2.0 5.0 0.00 0.00 0.00 50 1008.4
20260508234707 60 355 2.0 3.0 0.00 0.00 0.00 49 1008.3
20260508234207 60 338 2.0 3.0 0.00 0.00 0.00 49 1008.3
20260508233708 60 11 1.0 3.0 0.00 0.00 0.00 49 1008.2
20260508233208 60 313 2.0 3.0 0.00 0.00 0.00 49 1008.1
20260508232708 61 33 2.0 3.0 0.00 0.00 0.00 48 1007.9
20260508232207 61 22 2.0 6.0 0.00 0.00 0.00 48 1007.9
20260508231209 62 292 2.0 5.0 0.00 0.00 0.00 47 1007.8
20260508230707 62 327 1.0 3.0 0.00 0.00 0.00 46 1007.9
20260508230208 62 334 2.0 6.0 0.00 0.00 0.00 47 1007.8
20260508225708 62 319 2.0 6.0 0.00 0.00 0.00 47 1007.8
20260508224208 62 290 1.0 7.0 0.00 0.00 0.00 46 1007.6
20260508223208 61 262 2.0 8.0 0.00 0.00 0.00 46 1007.8
20260508221708 62 321 3.0 8.0 0.00 0.00 0.00 45 1007.8
20260508220207 62 216 3.0 8.0 0.00 0.00 0.00 45 1007.8
20260508215708 62 348 3.0 8.0 0.00 0.00 0.00 46 1007.7
20260508215208 61 28 3.0 8.0 0.00 0.00 0.00 46 1007.7
20260508214707 61 0 3.0 10.0 0.00 0.00 0.00 48 1007.8
20260508214208 61 337 5.0 13.0 0.00 0.00 0.00 47 1007.8
20260508213709 61 9 3.0 15.0 0.00 0.00 0.00 48 1008.0
20260508213208 62 342 7.0 15.0 0.00 0.00 0.00 45 1008.0
20260508212707 61 355 2.0 12.0 0.00 0.00 0.00 43 1007.8
20260508211707 62 314 3.0 9.0 0.00 0.00 0.00 43 1008.0
20260508211208 62 298 3.0 12.0 0.00 0.00 0.00 42 1008.1
20260508210707 62 294 6.0 12.0 0.00 0.00 0.00 41 1008.1
20260508210208 62 286 3.0 9.0 0.00 0.00 0.00 41 1008.0
20260508204708 63 254 4.0 10.0 0.00 0.00 0.00 41 1008.1
20260508204207 63 284 5.0 10.0 0.00 0.00 0.00 40 1008.0
20260508203708 62 241 3.0 9.0 0.00 0.00 0.00 41 1008.1
20260508203208 62 251 1.0 9.0 0.00 0.00 0.00 41 1008.1
20260508202707 62 241 4.0 9.0 0.00 0.00 0.00 41 1008.0
20260508202207 62 332 3.0 9.0 0.00 0.00 0.00 42 1008.1
20260508201708 61 236 2.0 10.0 0.00 0.00 0.00 45 1008.0
20260508201207 61 348 4.0 14.0 0.00 0.00 0.00 46 1007.9
20260508200207 61 36 6.0 15.0 0.00 0.00 0.00 44 1007.9
20260508195708 62 317 6.0 15.0 0.00 0.00 0.00 44 1008.0
20260508195207 63 245 6.0 15.0 0.00 0.00 0.00 41 1007.9
20260508194708 63 281 3.0 15.0 0.00 0.00 0.00 38 1007.6
20260508194207 63 276 6.0 15.0 0.00 0.00 0.00 37 1007.7
20260508193707 63 323 5.0 15.0 0.00 0.00 0.00 36 1007.6
20260508193207 63 259 6.0 13.0 0.00 0.00 0.00 35 1007.6
20260508192707 64 170 6.0 13.0 0.00 0.00 0.00 34 1007.6
20260508192207 66 221 3.0 13.0 0.00 0.00 0.00 34 1007.6
20260508191207 64 255 5.0 13.0 0.00 0.00 0.00 35 1008.0
20260508190707 63 309 5.0 13.0 0.00 0.00 0.00 36 1008.0
20260508190207 63 204 5.0 18.0 0.00 0.00 0.00 36 1008.1
20260508185708 62 242 6.0 18.0 0.00 0.00 0.00 36 1008.1
20260508185208 62 285 5.0 13.0 0.00 0.00 0.00 36 1008.2
20260508184707 63 262 5.0 14.0 0.00 0.00 0.00 36 1008.1
20260508184208 63 263 6.0 14.0 0.00 0.00 0.00 35 1008.1
20260508183707 63 241 7.0 14.0 0.00 0.00 0.00 35 1008.0
20260508182208 63 242 6.0 17.0 0.00 0.00 0.00 34 1008.0
20260508181707 63 247 6.0 17.0 0.00 0.00 0.00 33 1008.2
20260508181207 64 257 6.0 17.0 0.00 0.00 0.00 33 1008.2
20260508180708 64 253 6.0 15.0 0.00 0.00 0.00 34 1008.3
20260508180207 64 141 7.0 20.0 0.00 0.00 0.00 34 1008.2
20260508175707 63 243 9.0 20.0 0.00 0.00 0.00 34 1008.5
20260508175208 63 254 5.0 18.0 0.00 0.00 0.00 34 1008.4
20260508174709 63 254 7.0 18.0 0.00 0.00 0.00 35 1008.4
20260508174209 63 245 7.0 24.0 0.00 0.00 0.00 34 1008.5
20260508173708 63 195 7.0 24.0 0.00 0.00 0.00 35 1008.5
20260508173208 64 238 10.0 20.0 0.00 0.00 0.00 34 1008.4
20260508172208 63 259 7.0 16.0 0.00 0.00 0.00 34 1008.3
20260508171707 63 187 7.0 16.0 0.00 0.00 0.00 34 1008.4
20260508171208 63 264 6.0 16.0 0.00 0.00 0.00 34 1008.6
20260508170707 63 211 7.0 16.0 0.00 0.00 0.00 34 1008.5
20260508165707 62 182 6.0 17.0 0.00 0.00 0.00 35 1008.6
20260508165207 62 123 7.0 17.0 0.00 0.00 0.00 35 1008.7
20260508164708 62 183 5.0 18.0 0.00 0.00 0.00 36 1008.6
20260508163207 62 247 6.0 18.0 0.00 0.00 0.00 35 1009.0
20260508162707 62 247 8.0 18.0 0.00 0.00 0.00 35 1009.0
20260508161709 60 236 3.0 20.0 0.00 0.00 0.00 38 1009.0
20260508161207 60 202 7.0 20.0 0.00 0.00 0.00 36 1009.2
20260508160707 61 207 4.0 16.0 0.00 0.00 0.00 35 1009.2
20260508155707 61 204 4.0 14.0 0.00 0.00 0.00 35 1009.2
20260508155208 61 202 6.0 14.0 0.00 0.00 0.00 36 1009.3
20260508153707 61 184 4.0 12.0 0.00 0.00 0.00 35 1009.3
20260508152707 62 244 7.0 13.0 0.00 0.00 0.00 35 1009.2
20260508152207 61 267 3.0 12.0 0.00 0.00 0.00 36 1009.3
20260508151709 61 167 3.0 12.0 0.00 0.00 0.00 36 1009.3
20260508151208 60 209 3.0 12.0 0.00 0.00 0.00 36 1009.2
20260508150207 59 234 2.0 3.0 0.00 0.00 0.00 37 1009.2
20260508145207 59 14 2.0 7.0 0.00 0.00 0.00 38 1009.3
20260508144707 59 254 3.0 7.0 0.00 0.00 0.00 38 1009.3
20260508144207 59 235 3.0 12.0 0.00 0.00 0.00 40 1009.4